This is the latest recevied weather packets stored in our database for station/object N2PUI. If no packets are shown the sender has not sent any weather packets the latest 10 day(s).
| Time | Temp. | Humidity | Pressure | Rain* | Wind** | Luminosity | Snow |
|---|---|---|---|---|---|---|---|
| 1777465765 | 11.67° C | 74% | 1014.1 hPa | 0 mm | - | 108 W/m² | - |
| 1777465460 | 11.67° C | 74% | 1014.3 hPa | 0 mm | - | 57 W/m² | - |
| 1777465159 | 11.67° C | 74% | 1014.2 hPa | 0 mm | - | 86 W/m² | - |
| 1777464551 | 11.67° C | 75% | 1014 hPa | 0 mm | - | 93 W/m² | - |
| 1777464248 | 11.67° C | 75% | 1014.3 hPa | 0 mm | - | 100 W/m² | - |
| 1777463943 | 11.11° C | 75% | 1014.2 hPa | 0 mm | - | 83 W/m² | - |
| 1777463333 | 11.11° C | 76% | 1014.8 hPa | 0 mm | - | 56 W/m² | - |
| 1777462725 | 11.11° C | 76% | 1014.8 hPa | 0 mm | - | 48 W/m² | - |
| 1777462420 | 11.11° C | 76% | 1014.9 hPa | 0 mm | - | 48 W/m² | - |
| 1777462118 | 11.11° C | 76% | 1014.9 hPa | 0 mm | - | 56 W/m² | - |
| 1777461814 | 11.11° C | 76% | 1014.9 hPa | 0 mm | - | 52 W/m² | - |
| 1777461510 | 11.11° C | 76% | 1014.9 hPa | 0 mm | - | 47 W/m² | - |
| 1777461206 | 11.11° C | 76% | 1014.9 hPa | 0 mm | - | 45 W/m² | - |
| 1777460902 | 10.56° C | 77% | 1014.8 hPa | 0 mm | - | 43 W/m² | - |
| 1777460597 | 10.56° C | 77% | 1014.6 hPa | 0 mm | - | 28 W/m² | - |
| 1777460293 | 10.56° C | 77% | 1014.7 hPa | 0 mm | - | 32 W/m² | - |
| 1777459991 | 10.56° C | 77% | 1014.7 hPa | 0 mm | - | 26 W/m² | - |
| 1777459082 | 10.56° C | 77% | 1014.9 hPa | 0 mm | - | 18 W/m² | - |
| 1777458778 | 10.56° C | 77% | 1014.9 hPa | 0 mm | - | 9 W/m² | - |
| 1777458475 | 10.56° C | 77% | 1014.9 hPa | 0 mm | - | 10 W/m² | - |
| 1777458172 | 10.56° C | 77% | 1014.9 hPa | 0 mm | - | 6 W/m² | - |
| 1777457867 | 10.56° C | 77% | 1015.1 hPa | 0 mm | - | 3 W/m² | - |
| 1777457562 | 10.56° C | 77% | 1015 hPa | 0 mm | - | 1 W/m² | - |
| 1777457258 | 10.56° C | 77% | 1015.2 hPa | 0 mm | - | 0 W/m² | - |
| 1777456954 | 10.56° C | 77% | 1015.1 hPa | 0 mm | - | 0 W/m² | - |
* Rain latest hour (hover to see other rain measurements)
** Current wind speed in m/s (hover to see current wind gust speed)